Lapse_Rate
5.5 5.8 5.9 6.0 6.2 6.3 6.2 6.2 6.3 6.4 6.5 6.6 6.7 6.5 6.6 6.5 6.5 6.6 6.8 6.6 6.5 7.1 6.7 6.5 6.4 6.6 6.1
5.9 6.0 5.9 6.1 6.2 6.3 6.4 6.5 6.4 6.5 6.7 6.9 6.6 6.5 6.6 6.5 6.4 6.4 6.4 6.4 6.6 6.7 6.8 6.8 6.6 6.0 6.1
6.0 6.1 6.0 6.0 6.1 6.2 6.3 6.3 6.4 6.5 6.6 6.8 6.6 6.5 6.6 6.5 6.4 6.1 5.8 6.2 6.7 7.0 6.6 6.9 6.5 6.3 6.0
5.9 6.2 6.3 6.2 6.2 6.1 6.1 6.3 6.4 6.3 6.4 6.6 6.5 6.5 6.4 6.5 6.4 6.0 6.3 6.4 6.5 6.6 6.6 7.0 6.7 6.1 6.4
6.2 6.3 6.4 6.3 6.2 6.0 6.0 6.1 6.2 6.3 6.3 6.4 6.4 6.3 6.2 6.5 6.5 6.5 6.2 6.8 6.7 6.5 6.7 5.9 6.7 6.5 6.4
6.4 6.4 6.3 6.3 6.2 6.0 5.9 5.9 5.9 6.0 6.2 6.3 6.3 6.2 6.3 6.4 6.6 6.7 6.8 6.9 7.3 7.5 7.4 6.9 6.8 6.7 6.4
6.4 6.4 6.3 6.3 6.1 6.0 5.8 5.8 5.9 5.9 6.0 6.0 6.1 6.3 6.5 6.7 6.6 6.7 6.7 7.4 7.4 7.4 7.0 6.5 6.8 6.8 6.7
6.5 6.5 6.4 6.3 6.1 6.0 5.8 5.7 5.8 6.0 5.9 6.1 6.3 6.5 6.6 6.6 6.8 6.8 7.1 7.2 7.3 7.1 6.9 7.0 6.9 7.0 6.9
6.4 6.4 6.3 6.2 6.1 6.0 5.8 5.7 5.6 5.9 6.1 6.2 6.4 6.5 6.5 6.6 6.7 6.9 6.9 7.0 6.9 6.9 6.9 6.9 6.9 6.8 7.0
6.3 6.3 6.2 6.2 6.1 6.0 5.8 5.6 5.6 5.8 5.9 6.2 6.2 6.3 6.5 6.4 6.6 6.8 6.6 6.9 7.0 6.9 7.0 6.9 6.7 6.6 6.8
6.0 6.0 6.1 6.1 6.1 6.0 5.7 5.6 5.8 5.9 6.0 6.1 6.1 6.1 6.0 6.1 6.4 6.7 6.7 6.7 6.6 6.7 6.7 6.5 6.4 6.4 6.5
6.0 6.0 6.0 6.0 6.0 6.0 5.9 5.8 5.9 6.0 6.0 6.0 6.0 6.0 5.9 5.9 6.0 6.2 6.1 5.8 5.7 6.0 6.3 6.2 6.2 6.2 6.3
6.1 6.0 6.0 5.9 6.1 6.0 6.0 5.9 6.1 6.1 6.1 6.1 5.9 5.9 5.9 5.9 5.7 5.8 5.7 5.7 5.6 5.6 6.0 6.1 6.1 6.1 6.2
6.0 5.9 5.9 5.9 6.0 5.9 5.9 6.0 6.0 6.1 6.1 6.0 5.9 5.9 5.9 5.8 5.8 5.7 5.8 5.7 5.5 5.5 5.4 5.8 6.0 6.1 6.2
6.0 5.8 5.7 5.8 5.8 5.8 5.9 6.0 5.9 5.8 5.8 5.7 5.7 5.8 5.8 5.8 5.9 6.1 6.1 6.1 5.9 5.9 5.9 5.9 6.0 6.1 6.1
5.8 5.7 5.6 5.7 5.8 5.8 5.8 5.9 5.8 5.5 5.5 5.4 5.7 5.7 5.7 5.8 5.9 6.0 6.3 6.3 6.2 6.2 6.1 6.0 5.8 5.9 5.9
5.8 5.6 5.6 5.6 5.7 5.7 5.7 5.6 5.6 5.5 5.6 5.5 5.8 5.8 5.8 5.6 5.6 5.8 6.0 6.1 6.2 6.2 6.1 6.2 6.0 5.9 5.9
Wind_Speed
1 3 2 3 4 1 2 3 3 4 2 1 5 8 13 16 19 23 30 29 4 12 15 19 21 28 30
2 1 1 2 3 2 1 3 5 7 2 1 5 9 12 14 15 20 26 30 26 15 20 27 30 26 25
2 1 1 1 2 2 0 2 3 4 5 6 6 8 11 11 15 17 20 25 28 29 25 23 22 23 21
4 2 1 2 1 1 2 1 1 1 2 3 4 6 8 9 12 15 16 18 19 22 21 23 17 16 16
4 2 2 1 2 2 2 2 2 3 2 3 5 2 5 6 8 10 11 12 13 14 15 17 19 18 17
2 2 3 3 3 3 2 2 2 6 3 3 1 1 4 7 6 6 6 7 9 11 12 12 12 13 14
3 1 2 4 4 4 3 3 2 1 2 2 2 1 1 2 5 4 3 4 6 8 9 9 11 12 12
3 3 3 2 4 4 4 4 2 1 2 1 1 1 2 1 3 1 1 3 4 5 6 7 9 9 9
2 5 5 5 6 4 2 3 2 3 3 2 2 2 0 2 1 2 4 4 6 6 7 8 7 8 8
3 1 4 4 3 3 4 3 1 1 4 2 1 2 1 1 1 1 4 6 5 7 6 6 6 4 9
2 2 1 3 2 3 4 2 1 0 4 3 2 2 1 2 1 2 2 3 4 4 5 6 6 1 1
1 2 1 2 2 5 5 5 5 3 6 6 2 2 2 2 2 1 1 2 3 3 3 4 6 6 5
2 1 1 2 5 3 5 5 5 6 7 4 2 2 1 1 2 2 3 3 6 3 6 5 5 6 1
2 2 3 2 2 2 2 1 1 2 3 4 3 2 1 1 1 2 2 2 2 4 5 6 8 10 10
2 2 2 2 2 2 1 2 2 2 2 2 3 1 2 1 2 3 3 2 3 2 3 3 4 10 12
2 2 2 2 2 2 2 2 2 2 2 2 2 1 1 7 15 3 3 2 3 4 2 2 3 8 14
2 2 2 2 4 3 3 3 4 2 2 3 3 2 2 3 1 20 3 4 3 5 4 5 2 3 10
Wind_Direction
108 50 79 145 111 82 37 53 65 42 17 43 36 20 16 6 3 1 359 2 290 193 178 165 162 132 127
110 105 105 86 114 114 62 65 66 40 26 123 61 34 30 16 13 15 14 16 46 113 125 123 123 127 127
247 114 102 145 101 70 31 79 53 22 35 48 64 44 42 31 24 27 27 29 38 56 76 93 111 120 126
275 177 145 137 127 172 216 243 211 358 30 38 69 47 39 35 35 30 38 43 46 60 66 79 89 97 106
255 181 164 188 195 175 186 172 246 225 239 238 237 62 25 30 32 38 44 49 57 65 74 81 82 87 90
238 213 197 211 168 180 141 163 244 199 201 210 202 106 41 40 24 35 48 60 66 68 74 81 86 95 96
266 239 256 210 162 173 180 182 200 152 220 189 142 139 83 57 28 11 34 53 74 77 81 95 103 110 104
287 275 265 271 191 180 166 133 82 60 319 176 112 203 120 159 344 233 111 105 107 99 110 119 122 118 120
295 252 244 228 190 116 135 146 176 194 203 129 164 113 135 188 123 327 166 142 128 122 124 136 134 134 134
232 214 135 118 160 250 161 190 141 122 173 145 123 131 162 342 143 277 145 120 154 143 136 150 148 161 138
215 161 138 106 111 35 28 121 127 219 168 110 165 120 151 138 167 229 184 161 137 144 175 181 183 217 170
230 198 161 112 88 58 50 63 100 169 170 120 141 159 155 142 168 134 240 166 151 149 166 192 204 213 227
210 165 118 90 112 112 87 100 87 79 111 110 135 150 174 153 146 176 154 204 187 190 188 213 202 217 212
193 141 117 151 185 154 163 181 155 136 96 105 137 148 147 246 158 172 193 181 168 195 196 203 224 228 233
142 151 177 159 177 142 199 166 231 161 149 151 169 177 300 204 211 220 189 189 169 169 180 216 221 227 229
165 181 180 175 177 160 188 210 206 196 170 148 146 169 242 239 216 208 199 187 167 177 187 197 237 217 224
172 185 180 182 204 189 195 211 223 217 188 161 174 176 186 239 231 214 200 179 169 193 196 205 212 215 222